{"data":{"norad_id":64824,"epoch":"2026-05-24T20:51:12.887424Z","epoch_age_seconds":76555,"freshness":"FRESH","line1":"1 64824U 25151J   26144.86889916  .00001849  00000+0  27149-3 0  9997","line2":"2 64824  51.9028 321.2457 0000741 117.3381 242.7657 14.79934136 46629","mean_motion":14.79934136,"eccentricity":7.41e-5,"inclination_deg":51.9028,"raan_deg":321.2457,"arg_perigee_deg":117.3381,"mean_anomaly_deg":242.7657,"bstar":0.00027149,"rev_number":4662,"period_min":97.301627482698,"perigee_km":629.01277483069,"apogee_km":630.05131138288,"semimajor_km":7007.6690431068,"source":"CELESTRAK","updated_at":"2026-05-25T13:38:04.823624Z"}}